Regional Weather Roundup
Issued by NWS

Home | Current Version | Previous Version | Graphics & Text | Print | Product List | Glossary On
Versions: 1 2 3 4 5 6 7 8 9 10 11 12 13 14 15 16 17 18 19 20 21 22 23 24 25 26 27 28 29 30 31 32 33 34 35 36 37 38 39 40 41 42 43 44 45 46 47 48 49 50
000
ASUS43 KBIS 181710
RWRND

NORTH DAKOTA REGIONAL WEATHER ROUNDUP
NATIONAL WEATHER SERVICE BISMARCK ND
1100 AM CST SUN FEB 18 2018

NOTE: "FAIR" INDICATES FEW OR NO CLOUDS BELOW 12,000 FEET WITH NO
SIGNIFICANT WEATHER AND/OR OBSTRUCTIONS TO VISIBILITY.


NDZ001>003-009>011-017-181800-
NORTHWEST NORTH DAKOTA

CITY           SKY/WX    TMP DP  RH WIND       PRES   REMARKS
WILLISTON      CLOUDY     9   2  73 N12       29.91R WCI  -6
MINOT          CLOUDY     9   3  77 N14       29.89R WCI  -7
MINOT AFB      CLOUDY     8   2  78 N15       29.89R WCI -10
$$

NDZ018>021-031>035-040>046-181800-
SOUTHWEST NORTH DAKOTA

CITY           SKY/WX    TMP DP  RH WIND       PRES   REMARKS
BISMARCK       LGT SNOW  13   8  81 N15G22    29.76R WCI  -3
DICKINSON      LGT SNOW   7   1  76 N22       29.73R WCI -14
GARRISON         N/A      8   1  73 NE13G23   29.82R WCI  -8
HETTINGER ARPT LGT SNOW   9   4  80 N21       29.69R VSB 1   WCI -11
$$

NDZ004>008-012>016-024-026-027-054-181800-
NORTHEAST NORTH DAKOTA

CITY           SKY/WX    TMP DP  RH WIND       PRES   REMARKS
GRAND FORKS    LGT SNOW  13  10  88 N18       29.85F VSB 3/4 WCI  -4
GRND FRKS AFB  PTSUNNY   12   7  79 NE18      29.82F BLWGSNOWWCI  -5
DEVILS LAKE    LGT SNOW   9   5  84 NE16      29.85R VSB 1   WCI  -8
$$

NDZ022-023-025-028>030-036>039-047>053-181800-
SOUTHEAST NORTH DAKOTA

CITY           SKY/WX    TMP DP  RH WIND       PRES   REMARKS
FARGO          LGT SNOW  20  17  88 NE18      29.70S VSB 1   WCI   5
JAMESTOWN      LGT SNOW  14  11  87 NE23G29   29.69R FOG     WCI  -5
$$





USA.gov is the U.S. government's official web portal to all federal, state and local government web resources and services.